Weather History for Clarksville, TN

Change the Weather History Date:

Wednesday, January 2, 2013

  Actual Average Record
Temperature  
Mean Temperature 30 °F -  
Max Temperature 34 °F - 71 °F (1965)
Min Temperature 25 °F - 2 °F (1977)
Degree Days  
Heating Degree Days 35    
Month to date heating degree days 66  
Since 1 July heating degree days 1506  
Cooling Degree Days 0    
Month to date cooling degree days 0  
Moisture  
Dew Point 23 °F    
Average Humidity 78    
Maximum Humidity 92    
Minimum Humidity 64    
Precipitation  
Precipitation 0.00 in - 1.90 in (1966)
Month to date precipitation 0.02  
Sea Level Pressure  
Sea Level Pressure 30.24 in    
Wind  
Wind Speed 4 mph (North)    
Max Wind Speed 14 mph    
Max Gust Speed 17 mph    
Visibility 7 miles    
Events      
T = Trace of Precipitation, MM = Missing Value Source: NWS Daily Summary

Daily Weather History Graph

Daily Weather History Graph

Search for Another Location

Airport:

Trip Planner

Search our weather history database for the weather conditions in past years. The results will help you decide how hot, cold, wet, or windy it might be!

Date:

Astronomy

Jan. 02, 2013 Rise Set
Actual Time 7:02 AM CST 4:45 PM CST
Civil Twilight 6:33 AM CST 5:14 PM CST
Nautical Twilight 6:01 AM CST 5:46 PM CST
Astronomical Twilight 5:29 AM CST 6:18 PM CST
Moon 10:08 PM CST (1/2) 9:52 AM CST (1/2)
Length of Visible Light 10h 41m
Length of Day
9h 43m
Waning Gibbous, 75% of the Moon is Illuminated
Jan 2
Waning Gibbous
Jan 4
Last Quarter
Jan 11
New
Jan 18
First Quarter
Jan 26
Full

Hourly Weather History & Observations

Time (CST) Temp. Windchill Dew Point Humidity Pressure Visibility Wind Dir Wind Speed Gust Speed Precip Events Conditions
12:52 AM 28.0 °F 18.6 °F 23.0 °F 81% 30.18 in 6.0 mi North 10.4 mph - N/A   Haze
1:52 AM 27.0 °F 16.7 °F 21.9 °F 81% 30.22 in 6.0 mi NNW 11.5 mph - N/A   Haze
2:52 AM 26.1 °F 16.8 °F 21.9 °F 84% 30.22 in 6.0 mi North 9.2 mph - N/A   Overcast
3:52 AM 26.1 °F 17.6 °F 21.9 °F 84% 30.22 in 6.0 mi NNW 8.1 mph - N/A   Overcast
4:52 AM 26.1 °F 18.4 °F 21.0 °F 81% 30.23 in 6.0 mi NNW 6.9 mph - N/A   Haze
5:52 AM 25.0 °F 18.1 °F 21.0 °F 85% 30.23 in 7.0 mi North 5.8 mph - N/A   Overcast
6:52 AM 26.1 °F 21.9 °F 21.0 °F 81% 30.26 in 7.0 mi North 3.5 mph - N/A   Overcast
7:52 AM 26.1 °F 19.4 °F 21.0 °F 81% 30.27 in 6.0 mi NNE 5.8 mph - N/A   Haze
9:52 AM 27.0 °F 23.0 °F 21.9 °F 81% 30.29 in 5.0 mi North 3.5 mph - N/A   Haze
10:52 AM 28.0 °F 20.0 °F 23.0 °F 81% 30.29 in 5.0 mi NNE 8.1 mph - N/A   Haze
11:52 AM 28.9 °F 21.9 °F 24.1 °F 82% 30.26 in 5.0 mi North 6.9 mph - N/A   Haze
12:38 PM 30.2 °F 24.3 °F 24.8 °F 80% 30.23 in 7.0 mi NNE 5.8 mph - N/A   Scattered Clouds
12:52 PM 30.0 °F - 23.0 °F 75% 30.25 in 8.0 mi Calm Calm - N/A   Scattered Clouds
1:05 PM 32.0 °F - 24.8 °F 75% 30.23 in 8.0 mi Calm Calm - N/A   Mostly Cloudy
1:31 PM 32.0 °F - 24.8 °F 75% 30.21 in 9.0 mi Calm Calm - N/A   Scattered Clouds
1:52 PM 32.0 °F - 24.1 °F 73% 30.22 in 9.0 mi Calm Calm - N/A   Clear
2:52 PM 33.1 °F 30.0 °F 23.0 °F 66% 30.21 in 10.0 mi ESE 3.5 mph - N/A   Clear
3:52 PM 34.0 °F - 23.0 °F 64% 30.22 in 10.0 mi Calm Calm - N/A   Clear
4:52 PM 32.0 °F - 24.1 °F 73% 30.23 in 9.0 mi Calm Calm - N/A   Clear
5:52 PM 30.0 °F 26.5 °F 25.0 °F 82% 30.25 in 7.0 mi SE 3.5 mph - N/A   Clear
6:52 PM 30.0 °F - 25.0 °F 82% 30.26 in 6.0 mi Calm Calm - N/A   Haze
7:52 PM 28.9 °F - 25.0 °F 85% 30.26 in 6.0 mi Calm Calm - N/A   Clear
8:52 PM 28.9 °F - 24.1 °F 82% 30.26 in 6.0 mi Calm Calm - N/A   Haze
9:52 PM 26.1 °F - 24.1 °F 92% 30.27 in 4.0 mi Calm Calm - N/A   Clear
10:52 PM 25.0 °F - 23.0 °F 92% 30.27 in 4.0 mi Calm Calm - N/A   Clear
11:52 PM 25.0 °F - 21.9 °F 88% 30.26 in 3.0 mi Calm Calm - N/A   Clear